This is the latest recevied weather packets stored in our database for station/object NI4CE-11. If no packets are shown the sender has not sent any weather packets the latest 10 day(s).
| Time | Temp. | Humidity | Pressure | Rain* | Wind** | Luminosity | Snow |
|---|---|---|---|---|---|---|---|
| 1778056467 | 20° C | 100% | 1015.9 hPa | 0 mm | - | - | - |
| 1778056184 | 20° C | 100% | 1015.9 hPa | 0 mm | - | - | - |
| 1778056032 | 19.44° C | 100% | 1015.7 hPa | 0 mm | - | - | - |
| 1778055884 | 19.44° C | 100% | 1015.7 hPa | 0 mm | - | - | - |
| 1778055736 | 20° C | 100% | 1015.8 hPa | 0 mm | - | - | - |
| 1778055584 | 20° C | 100% | 1015.8 hPa | 0 mm | - | - | - |
| 1778055447 | 19.44° C | 100% | 1015.9 hPa | 0 mm | - | - | - |
| 1778055390 | 20° C | 100% | 1015.8 hPa | 0 mm | - | - | - |
| 1778055284 | 19.44° C | 100% | 1015.9 hPa | 0 mm | - | - | - |
| 1778055238 | 21.11° C | 100% | 1015.9 hPa | 0 mm | - | - | - |
| 1778054984 | 20° C | 100% | 1015.8 hPa | 0 mm | - | - | - |
| 1778054684 | 21.11° C | 100% | 1015.9 hPa | 0 mm | - | - | - |
| 1778054384 | 20° C | 100% | 1016 hPa | 0 mm | - | - | - |
| 1778054084 | 21.11° C | 100% | 1016 hPa | 0 mm | - | - | - |
| 1778053832 | 20° C | 100% | 1015.8 hPa | 0 mm | - | - | - |
| 1778053820 | 20.56° C | 100% | 1015.9 hPa | 0 mm | - | - | - |
| 1778053784 | 20.56° C | 100% | 1015.9 hPa | 0 mm | - | - | - |
| 1778053484 | 19.44° C | 100% | 1015.7 hPa | 0 mm | - | - | - |
| 1778053184 | 20° C | 100% | 1015.7 hPa | 0 mm | - | - | - |
| 1778052884 | 20° C | 100% | 1015.8 hPa | 0 mm | - | - | - |
| 1778052700 | 19.44° C | 100% | 1015.9 hPa | 0 mm | - | - | - |
| 1778052584 | 19.44° C | 100% | 1015.8 hPa | 0 mm | - | - | - |
| 1778052284 | 20° C | 100% | 1015.9 hPa | 0 mm | - | - | - |
| 1778051985 | 19.44° C | 100% | 1015.9 hPa | 0 mm | - | - | - |
| 1778051861 | 18.89° C | 100% | 1016 hPa | 0 mm | - | - | - |
* Rain latest hour (hover to see other rain measurements)
** Current wind speed in m/s (hover to see current wind gust speed)